STARLINK-5717 (55618 NORAD) Tracking and Keplerian Element Data

This shows tracking and keplerian element data for the satellite.

Feedback or suggestion? Click here.




ElementValue
Catalog55618
NameSTARLINK-5717
Epoch Orbit310
Epoch Day62.85401182
Epoch Year2023
RAAN237.784
Inclination42.9994
Eccentricity0.0001323
Argument of Perigee256.821
Mean Anonmoly103.251
Mean Motion15.71355168
Decay Rate0.00074742
L11 55618U 23020BB 23062.85401182 .00074742 00000+0 56832-3 0 9994
L22 55618 42.9994 237.7840 0001323 256.8210 103.2510 15.71355168 3106



Live tracking and technical data element details for STARLINK-5717 (NORAD 55618). STARLINK-5717 can be tracked NOW for your location showing map with azimuth and elevation plus other details from your city location.







IsCatalogInMostPopularTable: catalog: 55618, numindb: 3
Update: records affected: 1



GetName: 55618 STARLINK-5717

Hit Count: updated at: Wed, 22 Mar 2023 15:22:45 GMT